Find Starlink 33707

NORAD ID: 63401 Int'l Des: 2025-065 Owner: SPXS Country: US Constellation: starlink operational
LEOCIRCULAR

Live Position

Loading 3D Globe...

About Starlink 33707

Description loading...

Upcoming Passes

Passes for default location (London). Set your location on the main map for personalized predictions.

Altitude History

Loading altitude history...

Two-Line Element Set

1 63401U 25065C 26123.43236668 .00021278 00000-0 78007-3 0 9999
2 63401 42.9996 157.7926 0001667 265.4573 94.6089 15.27599083 61219
Epoch: May 3, 2026 • Age: 15 hours

Current Status

Altitude 487.1 km
Velocity 7.62 km/s
Sub-Earth Point -20.95°S, 115.08°E
Launch Date Mar 31, 2025
Age 1 years
Type internet

Technical Details

Classification Payload
Mass 575.00 kg
Dry Mass 530.00 kg
Total Mass 575.00 kg
Length 0.30 m
Diameter 4.10 m
Span 29.00 m
Shape Box + pan
Manufacturer SPXS
Bus Type Starlink V2MO
Phase Status In Orbit
Owner/State SPXS/US

Most Searched